Change the Weather History Date:

Thursday, June 27, 2013

  Actual Average Record
Temperature  
Mean Temperature 68 °F -  
Max Temperature 75 °F 75 °F 87 °F (2005)
Min Temperature 62 °F 49 °F 41 °F (1992)
Cooling Degree Days 4    
Growing Degree Days 18 (Base 50)    
Moisture  
Dew Point 64 °F    
Average Humidity 89    
Maximum Humidity 100    
Minimum Humidity 73    
Precipitation  
Precipitation 0.61 in - - ()
Sea Level Pressure  
Sea Level Pressure 29.74 in    
Wind  
Wind Speed 5 mph (SE)    
Max Wind Speed 16 mph    
Max Gust Speed 22 mph    
Visibility 10 miles    
Events Thunderstorm    
Averages and records for this station are not official NWS values.
T = Trace of Precipitation, MM = Missing Value Source: NWS Daily Summary

Daily Weather History Graph

Daily Weather History Graph

Search for Another Location

Airport or City:

Trip Planner

Search our weather history database for the weather conditions in past years. The results will help you decide how hot, cold, wet, or windy it might be!

Date:

Astronomy

Jun. 27, 2013 Rise Set
Actual Time 5:48 AM EDT 9:33 PM EDT
Civil Twilight 5:09 AM EDT 10:12 PM EDT
Nautical Twilight 4:16 AM EDT 11:04 PM EDT
Astronomical Twilight 3:02 AM EDT 12:18 AM EDT
Moon No Moon Rise 11:06 AM EDT (6/27)
Length of Visible Light 17h 03m
Length of Day
15h 45m
Waning Gibbous, 76% of the Moon is Illuminated
Jun 27
Waning Gibbous
Jun 30
Last Quarter
Jul 8
New
Jul 15
First Quarter
Jul 22
Full

Hourly Weather History & Observations

Time (EDT) Temp. Dew Point Humidity Pressure Visibility Wind Dir Wind Speed Gust Speed Precip Events Conditions
12:15 AM 69.8 °F 62.6 °F 78% 29.78 in 10.0 mi North 3.5 mph - N/A Thunderstorm Mostly Cloudy
12:35 AM 71.6 °F 62.6 °F 73% 29.78 in 10.0 mi North 6.9 mph - N/A Thunderstorm Mostly Cloudy
12:55 AM 69.8 °F 62.6 °F 78% 29.77 in 10.0 mi NNE 8.1 mph - N/A   Overcast
1:15 AM 69.8 °F 62.6 °F 78% 29.76 in 10.0 mi ENE 5.8 mph - N/A   Partly Cloudy
1:35 AM 68.0 °F 62.6 °F 83% 29.76 in 10.0 mi Calm Calm - N/A   Clear
1:55 AM 69.8 °F 62.6 °F 78% 29.74 in 10.0 mi Calm Calm - N/A   Clear
2:15 AM 66.2 °F 62.6 °F 88% 29.74 in 10.0 mi Calm Calm - N/A   Clear
2:35 AM 66.2 °F 62.6 °F 88% 29.74 in 10.0 mi Calm Calm - N/A   Clear
2:55 AM 66.2 °F 62.6 °F 88% 29.75 in 10.0 mi SSE 4.6 mph - N/A   Clear
3:15 AM 66.2 °F 62.6 °F 88% 29.75 in 10.0 mi SSE 5.8 mph - N/A   Mostly Cloudy
3:35 AM 66.2 °F 62.6 °F 88% 29.74 in 10.0 mi SSE 6.9 mph - N/A Thunderstorm Thunderstorm
3:55 AM 66.2 °F 62.6 °F 88% 29.74 in 10.0 mi SSE 3.5 mph - N/A Thunderstorm Overcast
4:15 AM 66.2 °F 62.6 °F 88% 29.73 in 10.0 mi SSW 3.5 mph - N/A   Overcast
4:35 AM 66.2 °F 62.6 °F 88% 29.76 in 10.0 mi SW 5.8 mph - N/A Thunderstorm Thunderstorm
4:55 AM 66.2 °F 62.6 °F 88% 29.73 in 10.0 mi Calm Calm - N/A Thunderstorm Thunderstorm
5:15 AM 66.2 °F 64.4 °F 94% 29.74 in 10.0 mi NW 11.5 mph 16.1 mph 0.02 in Thunderstorm Thunderstorm
5:35 AM 64.4 °F 64.4 °F 100% 29.76 in 9.0 mi South 4.6 mph - 0.14 in Thunderstorm Thunderstorm
5:55 AM 64.4 °F 64.4 °F 100% 29.76 in 10.0 mi South 5.8 mph - 0.15 in   Overcast
6:15 AM 64.4 °F 64.4 °F 100% 29.76 in 10.0 mi NNE 3.5 mph - N/A   Overcast
6:35 AM 64.4 °F 62.6 °F 94% 29.77 in 10.0 mi ENE 5.8 mph - N/A   Overcast
6:55 AM 64.4 °F 64.4 °F 100% 29.77 in 10.0 mi ENE 6.9 mph - N/A   Overcast
7:15 AM 64.4 °F 64.4 °F 100% 29.78 in 10.0 mi East 5.8 mph - N/A   Overcast
7:35 AM 64.4 °F 64.4 °F 100% 29.78 in 10.0 mi East 4.6 mph - N/A   Mostly Cloudy
7:55 AM 66.2 °F 64.4 °F 94% 29.77 in 10.0 mi East 3.5 mph - N/A   Overcast
8:15 AM 64.4 °F 62.6 °F 94% 29.79 in 5.0 mi West 5.8 mph - 0.01 in   Overcast
8:35 AM 64.4 °F 62.6 °F 94% 29.78 in 4.0 mi Calm Calm - 0.04 in   Overcast
8:55 AM 64.4 °F 64.4 °F 100% 29.77 in 3.0 mi Calm Calm - 0.09 in   Overcast
9:15 AM 66.2 °F 64.4 °F 94% 29.75 in 10.0 mi East 6.9 mph - N/A   Overcast
9:35 AM 66.2 °F 66.2 °F 100% 29.75 in 10.0 mi SE 8.1 mph - N/A   Overcast
9:55 AM 66.2 °F 66.2 °F 100% 29.76 in 10.0 mi Calm Calm - N/A   Overcast
10:15 AM 66.2 °F 66.2 °F 100% 29.76 in 10.0 mi SE 6.9 mph - N/A   Overcast
10:35 AM 68.0 °F 66.2 °F 94% 29.76 in 10.0 mi SSE 8.1 mph - N/A   Overcast
10:55 AM 66.2 °F 66.2 °F 100% 29.76 in 10.0 mi SSE 5.8 mph - N/A   Overcast
11:15 AM 68.0 °F 66.2 °F 94% 29.76 in 10.0 mi SE 4.6 mph - N/A   Overcast
11:35 AM 69.8 °F 66.2 °F 88% 29.75 in 10.0 mi SE 5.8 mph - N/A   Mostly Cloudy
11:55 AM 69.8 °F 66.2 °F 88% 29.75 in 10.0 mi SE 5.8 mph - N/A   Mostly Cloudy
12:15 PM 69.8 °F 66.2 °F 88% 29.76 in 10.0 mi SE 5.8 mph - N/A   Overcast
12:35 PM 69.8 °F 66.2 °F 88% 29.75 in 10.0 mi SE 4.6 mph - N/A   Overcast
12:55 PM 69.8 °F 66.2 °F 88% 29.75 in 10.0 mi SSE 5.8 mph - N/A   Overcast
1:15 PM 71.6 °F 66.2 °F 83% 29.74 in 10.0 mi SE 6.9 mph - N/A   Overcast
1:35 PM 71.6 °F 66.2 °F 83% 29.73 in 10.0 mi ESE 6.9 mph - N/A   Mostly Cloudy
1:55 PM 71.6 °F 66.2 °F 83% 29.73 in 10.0 mi East 8.1 mph - N/A   Scattered Clouds
2:15 PM 73.4 °F 66.2 °F 78% 29.73 in 10.0 mi ESE 8.1 mph - N/A   Scattered Clouds
2:35 PM 73.4 °F 66.2 °F 78% 29.73 in 10.0 mi East 6.9 mph - N/A   Mostly Cloudy
2:55 PM 73.4 °F 66.2 °F 78% 29.73 in 10.0 mi SE 10.4 mph - N/A   Overcast
3:15 PM 75.2 °F 66.2 °F 73% 29.72 in 10.0 mi ESE 9.2 mph - N/A   Overcast
3:35 PM 75.2 °F 66.2 °F 73% 29.72 in 10.0 mi SE 10.4 mph - N/A   Overcast
3:55 PM 75.2 °F 68.0 °F 78% 29.71 in 10.0 mi SE 13.8 mph - N/A   Overcast
4:15 PM 73.4 °F 66.2 °F 78% 29.71 in 10.0 mi ESE 11.5 mph - N/A   Mostly Cloudy
4:35 PM 73.4 °F 66.2 °F 78% 29.70 in 10.0 mi SE 13.8 mph 19.6 mph N/A Thunderstorm Overcast
4:55 PM 73.4 °F 66.2 °F 78% 29.70 in 10.0 mi SE 16.1 mph 21.9 mph N/A Thunderstorm Overcast
5:15 PM 71.6 °F 66.2 °F 83% 29.71 in 10.0 mi SE 10.4 mph - N/A Thunderstorm Mostly Cloudy
5:35 PM 73.4 °F 66.2 °F 78% 29.71 in 10.0 mi ESE 11.5 mph - N/A Thunderstorm Thunderstorm
5:55 PM 71.6 °F 66.2 °F 83% 29.71 in 10.0 mi ESE 12.7 mph - N/A Thunderstorm Mostly Cloudy
6:15 PM 71.6 °F 64.4 °F 78% 29.70 in 10.0 mi SSE 12.7 mph 17.3 mph N/A Thunderstorm Overcast
6:35 PM 69.8 °F 62.6 °F 78% 29.71 in 9.0 mi South 6.9 mph - N/A Thunderstorm Thunderstorm
6:55 PM 64.4 °F 62.6 °F 94% 29.72 in 9.0 mi West 13.8 mph - 0.08 in Thunderstorm Thunderstorm
7:15 PM 62.6 °F 62.6 °F 100% 29.70 in 10.0 mi Calm Calm - 0.27 in Thunderstorm Thunderstorm
7:35 PM 64.4 °F 62.6 °F 94% 29.69 in 10.0 mi Calm Calm - 0.29 in   Mostly Cloudy
7:55 PM 62.6 °F 60.8 °F 94% 29.69 in 10.0 mi ESE 5.8 mph - 0.29 in   Scattered Clouds
8:15 PM 64.4 °F 62.6 °F 94% 29.70 in 10.0 mi South 3.5 mph - N/A   Clear
8:35 PM 62.6 °F 60.8 °F 94% 29.69 in 10.0 mi West 3.5 mph - N/A   Clear
8:55 PM 62.6 °F 60.8 °F 94% 29.70 in 10.0 mi West 5.8 mph - N/A   Clear
9:15 PM 62.6 °F 62.6 °F 100% 29.70 in 10.0 mi West 3.5 mph - N/A   Clear
9:35 PM 62.6 °F 60.8 °F 94% 29.71 in 10.0 mi Calm Calm - N/A   Clear
9:55 PM 64.4 °F 62.6 °F 94% 29.71 in 10.0 mi Calm Calm - N/A   Partly Cloudy
10:15 PM 64.4 °F 62.6 °F 94% 29.71 in 10.0 mi ENE 3.5 mph - N/A   Scattered Clouds
10:35 PM 64.4 °F 62.6 °F 94% 29.71 in 10.0 mi ENE 3.5 mph - N/A   Mostly Cloudy
10:55 PM 64.4 °F 62.6 °F 94% 29.70 in 8.0 mi Calm Calm - N/A   Partly Cloudy
11:15 PM 62.6 °F 60.8 °F 94% 29.69 in 10.0 mi East 5.8 mph - N/A   Clear
11:35 PM 62.6 °F 62.6 °F 100% 29.69 in 10.0 mi ENE 4.6 mph - N/A   Clear
11:55 PM 62.6 °F 62.6 °F 100% 29.68 in 10.0 mi ENE 6.9 mph - N/A   Clear